Theta_e
307 301 298 302 303 305 304 303 304 318 324 321 319 319 321 327 328 326 323 325 329 330 329 334 337 339 341 341 340 340 340 339 340 337 336 339 341 342 341 344 346 343 344 346
301 298 305 308 308 305 303 301 302 314 324 319 317 318 323 326 326 327 325 325 327 328 328 332 335 338 340 340 340 340 340 337 338 337 337 340 339 341 342 342 344 346 344 346
299 304 309 307 305 304 304 298 302 303 314 321 311 309 317 322 324 326 325 328 328 328 327 330 334 336 340 339 341 341 340 338 336 338 338 340 342 339 338 341 342 344 348 348
301 308 307 306 303 303 293 306 306 306 301 296 305 293 310 314 316 320 319 323 326 327 329 331 334 335 339 340 343 342 341 339 336 336 336 338 337 334 336 338 343 343 348 345
301 305 304 303 305 307 301 307 306 307 301 297 300 298 301 312 311 316 321 325 329 328 330 330 334 336 339 342 343 342 341 340 337 336 336 338 334 332 333 337 338 340 345 344
305 310 307 306 310 308 308 304 301 300 297 291 298 300 299 308 313 316 321 327 327 329 330 331 333 337 338 344 343 342 341 341 341 341 338 339 334 331 335 337 336 338 344 348
303 305 308 309 304 309 301 293 288 289 289 290 296 299 301 312 316 319 319 322 327 328 329 330 331 335 337 340 342 341 341 340 343 343 341 341 335 334 337 339 340 338 342 343
295 296 303 308 305 304 298 294 288 285 286 291 299 296 302 314 319 320 321 322 325 325 327 331 333 335 337 339 342 342 340 339 341 343 342 343 344 344 341 338 340 341 342 343
295 298 309 308 309 304 298 294 296 290 291 289 293 300 310 315 315 319 319 323 328 328 327 330 334 334 338 338 342 343 341 341 342 345 343 342 342 343 342 339 339 343 345 350
300 296 305 308 306 303 301 301 292 288 287 286 292 297 300 310 314 318 318 321 320 321 326 330 334 334 339 339 342 344 344 343 343 346 345 344 344 345 345 341 338 342 343 344
300 299 299 303 299 299 297 294 293 291 291 287 287 292 308 312 316 318 320 323 320 323 325 331 334 335 339 340 341 342 344 344 344 346 346 346 345 345 344 345 345 342 339 344
304 297 294 300 305 305 300 297 292 289 288 290 290 293 307 314 317 321 322 322 323 324 330 332 333 335 337 339 340 342 343 345 346 346 346 346 346 346 344 344 345 344 336 342
308 296 291 295 301 303 301 302 294 294 289 289 287 292 310 314 316 319 319 320 320 321 328 329 331 333 336 340 340 342 344 344 345 346 344 343 344 345 345 346 346 345 345 346
312 298 295 291 295 300 299 302 301 297 291 291 292 295 300 311 315 316 317 319 317 319 320 328 331 332 335 340 341 342 344 345 345 345 345 344 345 346 346 347 347 347 348 347
305 298 299 302 306 307 305 305 305 298 297 294 299 297 301 307 315 317 319 319 316 319 326 327 331 332 334 340 341 344 345 346 346 345 346 345 347 347 348 347 346 345 346 348
304 296 300 299 307 307 304 306 307 306 304 302 304 300 306 310 319 319 320 318 318 323 328 329 332 332 335 338 342 344 345 347 348 346 344 348 347 347 346 346 346 347 348 348
296 297 295 291 304 304 300 303 304 305 307 306 301 307 309 310 316 319 319 321 323 328 330 331 333 334 336 335 340 343 344 345 344 344 343 346 348 348 346 346 344 344 344 344
294 292 293 289 295 290 301 308 310 306 308 313 313 314 314 315 317 321 324 324 324 330 331 332 334 335 336 336 340 342 343 343 342 342 346 346 345 346 346 345 344 344 345 345
297 293 289 288 290 296 300 304 306 303 305 318 317 320 318 319 318 317 327 322 325 327 332 337 337 340 340 340 342 345 344 343 342 342 346 346 346 345 346 344 343 343 342 343
296 295 293 289 287 286 297 312 317 309 297 315 317 318 318 319 308 313 325 326 327 331 334 338 342 343 342 344 345 344 342 342 341 343 346 349 348 347 345 343 342 344 343 342
293 294 290 289 289 293 308 313 315 297 298 314 316 316 317 313 317 319 327 327 330 332 338 341 342 342 343 345 345 342 342 341 343 346 347 348 347 346 345 345 343 341 339 339
293 292 291 292 290 289 312 312 303 308 311 314 315 314 313 316 323 321 326 326 328 332 335 341 340 341 343 345 345 343 343 345 347 347 347 346 346 348 347 342 338 338 338 335
293 299 298 299 297 305 311 313 316 315 313 314 314 316 315 315 322 325 325 326 329 331 330 339 343 342 344 345 347 344 345 348 348 346 344 343 343 343 341 337 335 334 333 331
298 303 297 300 303 306 309 315 319 317 314 318 319 318 317 316 321 323 323 323 326 330 329 333 342 343 342 346 347 347 348 347 344 340 339 338 336 336 337 336 336 334 332 332
298 300 299 299 305 307 310 315 317 318 318 319 320 320 318 318 316 324 325 324 319 325 330 329 337 341 344 345 344 346 343 343 341 339 337 336 335 336 337 334 331 335 335 332
299 296 294 294 304 307 310 317 319 318 317 318 317 317 320 318 315 318 324 325 320 324 329 331 335 340 342 344 342 341 341 340 338 336 336 336 337 336 336 335 329 309 308 305
Wind_Speed
6 1 7 14 10 13 8 8 10 7 9 12 16 15 9 15 13 9 8 9 11 6 8 14 15 14 12 10 10 10 9 7 6 3 3 3 4 3 2 3 6 7 5 4
5 7 13 12 12 10 8 9 7 5 8 12 7 16 6 18 12 13 12 12 15 14 6 13 17 15 15 13 12 10 9 8 6 3 3 3 3 2 3 2 4 7 7 6
8 16 7 9 15 14 16 6 6 7 1 7 3 3 1 2 5 6 7 10 13 19 11 14 16 17 15 14 13 11 11 10 7 6 3 2 3 3 2 1 3 5 7 6
8 17 10 12 9 7 5 6 6 4 4 3 4 6 5 6 12 7 9 12 13 14 12 12 18 17 17 15 13 11 11 11 8 7 4 4 4 4 4 3 2 5 6 6
11 8 10 7 9 3 11 7 6 3 1 3 5 3 5 3 11 17 14 12 14 16 16 16 21 20 16 16 14 12 11 9 9 7 6 5 3 2 2 2 3 3 5 7
12 7 6 8 10 5 5 2 7 6 4 3 7 6 6 8 20 7 9 13 12 16 18 19 16 18 17 15 14 13 13 10 11 10 8 7 7 6 3 3 3 4 4 5
7 14 8 5 8 15 4 8 5 5 6 7 7 2 10 10 13 12 16 13 14 10 14 16 17 18 18 19 17 14 14 11 11 12 11 8 8 7 7 5 4 5 2 3
6 14 6 3 10 13 6 10 8 5 3 8 2 7 9 15 13 6 10 11 6 6 5 15 19 16 19 19 18 16 15 13 10 12 11 8 8 5 4 5 3 4 4 5
7 12 17 5 9 11 6 4 9 6 1 2 3 8 9 5 4 6 12 7 6 4 8 11 17 17 19 19 19 18 16 14 13 13 10 9 7 7 6 6 4 2 4 4
5 10 9 18 3 2 9 4 1 2 3 5 5 7 6 6 7 9 12 11 9 11 15 14 18 17 18 20 17 17 16 16 15 13 12 9 9 7 6 5 7 6 4 2
5 7 8 3 3 8 2 2 1 5 6 7 2 8 7 11 6 12 13 20 17 14 14 15 18 19 19 17 18 16 14 14 13 12 11 10 9 8 6 6 5 6 5 6
1 3 4 8 9 7 7 8 3 6 7 4 6 9 8 12 13 16 18 18 13 6 12 18 18 19 18 18 17 17 16 14 13 13 11 10 9 7 7 6 7 7 7 7
6 4 5 10 9 6 5 3 3 3 3 7 5 9 2 5 8 8 16 15 9 6 10 11 13 15 18 17 16 16 15 15 12 11 10 8 7 7 8 7 7 7 7 7
7 4 4 3 7 5 7 8 5 6 3 3 6 7 7 5 8 9 9 10 6 10 8 15 16 15 14 14 16 15 15 14 13 12 11 11 11 10 9 8 7 7 7 6
4 2 3 5 9 7 6 7 9 6 6 4 10 6 9 9 15 18 13 6 4 9 10 18 18 17 13 13 14 13 13 14 14 13 11 11 9 9 8 7 7 6 6 7
4 4 5 6 6 8 16 5 7 8 9 5 6 6 2 8 3 7 15 12 8 7 9 14 17 16 17 16 16 14 13 14 13 12 12 11 9 9 9 7 7 6 7 6
3 2 3 6 3 10 12 1 4 3 7 7 7 12 9 5 10 17 10 6 6 8 11 12 13 15 15 15 15 14 13 11 12 11 8 8 9 9 8 7 6 6 6 5
6 2 4 6 1 8 5 2 2 4 5 13 13 15 8 6 4 9 4 13 12 10 17 13 13 12 9 8 8 8 9 11 11 9 8 7 8 8 6 6 6 5 4 5
8 4 3 4 5 12 14 7 6 3 4 14 12 17 9 3 6 7 8 5 2 7 7 13 14 13 10 12 10 10 9 9 8 8 8 8 7 7 6 6 6 4 4 4
2 6 7 3 4 7 3 2 6 3 4 14 15 14 15 17 4 4 7 5 2 6 9 11 12 13 13 11 12 11 8 7 8 8 8 7 7 6 6 6 6 4 3 4
6 4 5 5 6 5 5 11 5 2 6 7 11 14 16 10 13 6 10 8 5 4 13 15 16 16 13 12 13 11 9 9 7 7 7 7 7 7 6 6 3 4 4 4
2 4 4 3 4 4 11 5 1 1 2 2 3 8 13 13 14 2 8 8 5 5 6 13 13 11 12 13 13 10 10 8 7 7 7 6 6 5 5 7 3 3 5 4
2 2 3 1 5 5 6 5 5 5 5 2 4 7 8 15 5 6 10 10 9 8 8 5 12 10 11 13 13 12 8 9 9 7 6 5 6 6 6 6 6 4 4 3
4 3 3 3 5 8 8 8 6 6 5 4 4 2 9 11 11 2 12 16 12 7 7 3 7 11 10 9 11 11 9 8 9 8 7 7 7 5 5 4 4 4 3 3
7 4 5 6 10 15 14 13 8 8 8 5 6 3 5 8 18 8 5 8 7 4 5 6 6 8 12 9 8 8 8 9 9 8 6 6 5 6 4 3 2 3 4 5
6 9 7 7 7 5 9 6 3 6 11 8 7 6 3 3 13 14 14 8 5 4 3 5 4 6 6 10 8 8 9 10 9 6 5 5 4 4 4 4 3 7 5 7
Wind_Direction
253 107 237 243 216 241 255 267 269 212 179 188 218 232 203 182 196 218 168 175 164 225 188 179 169 165 157 144 142 148 142 157 134 133 137 137 162 173 170 185 141 143 162 176
357 245 242 248 261 248 255 241 283 232 178 182 215 241 184 183 195 206 196 187 184 195 206 160 159 154 161 159 161 152 155 156 151 154 158 152 146 171 181 171 156 154 180 213
188 246 261 226 264 271 272 260 281 268 274 185 117 333 344 284 283 223 220 189 191 189 194 162 164 161 160 163 166 162 162 161 161 176 129 97 94 76 91 183 156 187 194 200
235 264 245 269 244 210 237 242 232 297 80 211 136 279 241 221 245 233 233 206 202 202 190 168 168 172 167 171 166 160 164 162 164 171 163 161 172 154 198 178 146 173 190 181
246 283 291 278 253 277 240 233 253 262 233 31 327 92 264 72 251 236 234 201 205 200 190 178 177 173 170 167 168 165 163 171 158 173 175 179 154 159 172 179 179 164 191 193
239 241 226 237 284 239 273 338 40 42 84 360 249 150 273 189 226 236 232 204 204 191 188 188 176 171 170 169 166 166 166 180 167 173 181 183 176 174 158 184 205 231 171 193
279 266 270 258 302 297 136 59 353 347 358 231 311 162 238 236 237 202 220 199 208 194 181 184 177 171 168 172 171 172 170 178 183 176 181 179 181 192 193 181 206 191 193 188
208 293 182 212 194 233 217 149 159 216 209 270 315 258 256 229 212 168 218 82 86 228 213 186 183 173 171 173 173 177 176 177 179 181 182 178 176 190 197 180 190 186 177 218
173 254 261 215 244 140 229 170 186 132 168 17 240 284 299 81 31 208 195 129 107 205 245 207 187 178 176 175 177 177 181 185 183 183 177 179 185 189 204 195 187 199 238 198
268 273 243 276 127 295 162 172 112 4 157 275 291 274 239 88 171 179 178 171 171 205 205 191 189 183 183 179 174 178 184 183 185 180 182 181 186 189 195 174 186 190 210 222
195 184 269 28 166 217 352 257 113 127 142 176 228 271 225 195 163 144 173 176 197 242 216 190 183 182 185 171 175 176 181 182 185 187 182 176 190 189 190 191 197 175 206 211
330 203 239 211 271 220 181 204 136 126 271 233 162 264 253 174 191 169 176 184 209 242 178 172 173 177 178 176 174 177 176 181 188 186 182 182 179 182 192 199 208 181 194 204
321 350 357 348 347 0 78 94 125 142 103 225 140 266 340 139 166 223 177 202 189 142 140 151 159 178 179 176 174 175 177 180 181 183 178 183 185 177 197 198 211 206 202 198
49 60 119 207 265 267 304 330 335 114 107 253 211 280 302 233 191 212 220 205 181 164 158 177 175 180 178 176 173 174 174 179 178 182 185 186 188 193 197 199 208 208 205 211
68 298 29 281 276 325 327 344 331 317 235 175 282 200 265 241 200 202 200 182 238 184 171 171 176 173 164 170 170 171 176 179 180 181 184 200 188 193 194 194 211 210 209 210
342 281 349 305 307 329 313 275 265 273 288 285 310 290 288 323 280 207 201 182 193 196 172 164 167 162 165 167 172 173 179 183 175 182 189 197 184 191 195 195 209 204 213 207
220 181 350 258 343 330 297 149 94 344 21 331 9 293 291 281 194 225 207 189 175 163 168 152 167 168 168 166 161 173 180 169 177 182 179 178 179 196 198 188 195 206 205 198
210 217 172 253 190 243 253 301 341 6 3 8 338 334 303 277 198 196 216 167 160 159 171 165 162 165 167 149 136 132 157 172 177 178 167 171 176 180 183 183 187 192 179 178
177 157 248 200 203 273 291 310 310 45 17 12 353 352 337 7 36 19 356 335 144 135 168 161 162 156 155 155 145 149 156 163 169 180 175 179 175 175 176 181 183 170 176 183
353 206 185 186 206 243 334 59 302 194 270 349 354 355 358 321 82 251 290 302 252 153 145 149 160 144 151 153 148 147 150 154 175 177 178 176 175 167 175 183 174 166 172 192
338 356 207 249 241 270 357 308 307 170 282 327 358 344 346 346 296 188 173 241 273 284 160 164 160 155 161 148 147 153 152 177 181 168 164 170 167 169 171 168 165 170 176 180
298 309 301 327 226 282 353 323 55 95 278 253 308 318 335 330 303 306 265 192 221 203 109 167 151 158 155 154 151 156 173 171 160 160 167 171 167 159 154 162 164 177 180 197
336 170 274 213 252 270 294 238 220 183 202 241 274 308 324 334 273 303 317 288 215 165 127 126 148 148 153 156 160 163 181 159 154 148 159 163 160 159 158 152 174 184 195 214
294 179 223 357 304 268 276 265 228 206 230 214 233 304 328 327 328 266 265 289 312 1 29 54 117 140 139 146 159 162 151 147 139 142 148 150 145 161 176 188 189 192 201 217
247 220 223 250 262 275 285 238 217 215 238 219 268 229 274 316 320 292 218 269 308 8 24 357 127 161 152 141 134 130 135 142 143 138 145 161 170 178 204 213 213 226 232 194
205 235 218 226 254 216 273 273 207 231 254 209 202 265 273 277 296 303 272 234 246 296 20 320 15 142 156 138 141 142 144 139 141 153 170 181 174 194 212 200 202 69 39 11